Wind_Speed
9 8 8 8 8 8 9 8 9 8 8 8 7 7 7 7 7 7 7 7 6 6 6 6 6 6 6 6 6 6 6 6 6 5 6 6 7 7 7 8 8 7 7
9 8 8 8 8 8 8 8 8 7 7 6 6 6 6 6 6 5 5 5 5 5 5 5 5 5 5 5 5 5 5 5 5 5 5 5 6 7 7 8 7 7 7
9 9 8 8 7 8 8 8 8 7 6 5 5 5 5 4 5 4 4 4 4 5 4 4 4 4 5 4 4 5 5 5 4 5 5 5 6 6 7 7 6 6 7
10 10 8 8 8 8 8 9 7 6 5 4 4 4 4 4 4 4 3 3 4 4 3 4 3 4 4 4 5 5 4 4 5 5 5 6 6 6 6 6 6 6 7
10 9 8 8 8 8 8 7 7 6 5 4 4 4 4 4 4 4 3 3 3 3 4 4 3 3 3 4 4 4 4 4 5 5 5 6 7 6 6 6 6 6 7
9 8 7 7 7 7 7 7 7 7 5 4 4 4 4 4 4 4 4 4 3 3 4 3 3 3 4 4 4 4 4 5 5 5 6 7 7 7 7 7 7 8 8
8 8 7 7 7 7 7 7 7 7 5 5 4 4 4 4 4 4 4 4 3 3 3 3 4 4 4 4 4 4 5 5 6 6 6 7 7 8 8 8 8 9 8
9 8 8 7 7 7 7 7 7 7 6 5 5 5 5 5 5 5 5 4 4 4 4 4 5 5 5 5 5 5 5 5 5 6 6 7 8 8 8 8 9 9 9
9 9 8 8 7 8 8 7 7 6 5 5 5 5 6 6 5 6 5 5 5 5 5 5 4 5 5 5 5 5 5 5 6 6 7 7 7 8 9 9 9 9 10
9 9 8 8 8 8 8 7 7 6 5 5 5 5 5 5 5 6 6 6 5 5 5 5 5 5 5 6 6 6 6 7 7 7 7 8 8 8 9 10 10 10 10
9 9 9 9 8 8 8 7 6 6 5 5 5 5 6 6 6 6 6 6 6 5 5 6 6 6 6 7 7 7 6 7 7 7 8 8 8 9 9 9 9 9 9
10 10 9 9 9 8 8 8 7 7 6 6 6 7 7 7 7 7 7 7 7 6 6 7 6 6 6 7 7 7 7 7 7 8 8 8 9 9 9 9 10 10 11
11 10 9 9 8 8 8 8 8 7 8 7 7 7 7 7 7 7 7 7 8 7 7 7 7 7 6 6 6 6 7 7 7 8 8 9 9 10 10 10 11 11 12
11 10 10 10 9 9 9 10 9 8 8 8 8 7 8 8 8 7 7 8 8 8 7 7 8 8 7 7 8 8 8 8 8 9 9 10 10 11 11 11 11 12 13
13 12 11 11 11 10 10 10 10 9 9 9 9 9 9 8 8 9 8 8 8 8 7 8 8 8 8 8 9 10 9 9 10 11 11 12 12 12 12 12 12 13 14
15 14 13 13 13 12 12 11 11 11 10 10 10 10 10 10 9 9 9 9 9 8 8 8 8 9 9 9 10 10 11 11 12 12 13 13 13 13 13 13 14 15 16
16 15 15 14 14 14 13 12 12 12 12 11 11 11 11 11 10 10 10 9 9 9 9 9 10 10 10 10 11 11 12 13 13 14 14 14 14 14 14 15 16 17 18
17 17 16 15 15 15 14 14 13 13 13 13 12 12 12 11 11 11 11 11 11 10 11 11 11 11 11 12 12 13 14 14 14 14 15 15 16 16 17 17 18 18 19
18 17 16 16 16 16 15 15 14 14 14 14 13 13 13 13 13 12 12 12 12 12 12 12 12 13 13 13 13 14 14 14 15 16 16 17 17 18 19 20 20 20 21
19 18 17 17 17 17 17 17 16 15 15 15 15 15 15 14 14 14 14 14 14 13 14 14 15 14 14 15 15 15 15 16 16 17 17 18 18 19 20 21 21 22 23
20 20 19 19 19 19 19 18 17 17 17 17 17 16 16 15 15 15 15 15 15 15 15 16 16 16 16 16 17 17 17 17 17 17 18 19 20 21 21 23 24 24 25
22 21 21 21 21 20 20 19 19 18 18 18 17 17 17 16 16 16 16 16 16 16 16 16 16 17 17 18 18 18 18 18 19 20 20 21 22 23 24 25 26 26 27
23 23 23 22 22 22 22 21 21 20 20 19 19 19 18 18 18 18 18 18 17 18 18 18 18 18 19 19 19 19 20 20 21 22 23 24 25 25 26 27 27 27 28
25 25 25 24 23 23 23 23 23 22 22 21 21 21 20 20 20 20 20 20 20 20 20 20 20 21 21 21 21 22 22 22 23 24 25 26 26 27 28 28 29 29 30
27 27 26 26 25 25 24 24 24 23 23 23 23 22 22 22 21 22 21 21 22 22 22 22 22 22 22 23 24 24 24 25 25 26 26 27 28 28 28 29 29 30 30
28 28 28 27 27 26 26 25 25 25 25 24 24 24 24 24 24 24 24 24 23 23 23 23 24 24 24 25 25 26 26 27 28 28 28 28 29 29 29 30 30 30 30
Wind_Direction
319 317 317 315 313 314 313 309 303 301 296 294 291 291 290 291 294 292 287 282 281 281 284 282 278 281 281 279 273 267 268 272 266 267 265 262 264 269 268 268 268 273 283
321 317 313 313 314 318 318 314 313 306 301 300 297 294 289 290 295 298 292 283 282 289 294 291 278 279 278 277 273 269 273 274 273 272 271 269 268 265 261 261 267 276 280
324 319 313 305 307 311 313 318 317 311 304 293 296 297 294 298 304 302 298 287 286 297 291 291 279 275 273 271 269 273 276 274 273 270 272 275 266 264 262 265 269 274 274
321 318 318 310 304 308 309 310 312 313 307 299 299 299 299 300 307 302 301 297 294 298 298 305 294 277 273 273 272 268 270 268 271 272 272 272 269 264 261 270 271 276 278
321 320 319 316 312 309 308 308 309 309 306 310 308 304 302 299 300 297 294 297 296 299 308 305 298 278 274 277 272 264 261 262 265 271 277 280 275 272 276 278 278 278 282
318 320 323 325 322 318 310 309 312 311 298 296 304 301 300 298 299 302 300 295 298 305 311 295 289 283 276 278 278 271 264 267 265 271 280 284 276 275 281 286 288 288 288
316 317 321 327 325 323 319 308 305 302 293 287 289 290 293 301 305 303 306 300 297 304 304 295 287 292 287 281 279 275 275 279 277 277 282 286 286 285 282 286 289 291 292
317 317 317 319 321 325 321 314 305 299 288 279 278 283 282 290 296 299 301 297 290 287 292 296 289 294 291 280 277 281 287 285 283 283 284 285 289 287 285 289 291 290 289
309 311 313 313 315 321 322 316 306 300 289 278 273 279 279 280 283 288 293 294 289 289 294 298 291 294 292 282 278 282 284 284 282 282 284 287 290 288 287 289 291 290 289
309 309 309 312 310 313 317 319 312 302 291 281 278 280 284 285 286 290 287 290 293 287 290 295 295 288 285 285 278 278 278 280 284 282 284 288 292 293 290 290 290 290 290
302 302 305 309 306 309 314 314 313 306 298 289 285 282 282 278 283 287 285 289 290 286 285 288 290 284 281 286 286 282 281 283 286 286 288 291 292 294 292 289 290 292 294
296 296 299 304 305 305 307 308 308 304 297 289 285 281 281 281 284 286 286 285 283 281 283 282 284 288 287 288 289 285 284 288 291 291 292 294 294 296 294 291 290 292 295
296 295 295 300 303 305 306 305 304 301 297 291 285 280 277 278 281 285 290 291 288 284 284 277 283 287 294 294 291 292 290 293 294 294 295 296 296 298 297 294 292 292 293
290 290 290 293 298 300 302 304 300 296 294 291 286 282 278 279 277 279 285 291 290 284 282 281 285 288 292 294 293 295 291 291 294 296 294 296 298 297 297 296 295 294 293
282 283 285 288 289 293 295 296 293 291 291 290 285 286 281 278 278 277 280 285 288 285 283 287 286 285 287 288 292 295 294 292 294 295 294 295 296 297 298 297 297 297 298
279 280 281 283 285 286 289 291 288 286 285 286 284 283 278 277 277 276 278 281 285 282 281 283 286 287 286 285 289 291 293 292 293 295 294 293 296 297 296 297 298 299 299
276 277 279 280 282 283 287 290 286 284 283 283 284 279 277 275 274 277 280 280 277 277 280 281 283 287 288 287 288 291 292 292 293 295 296 294 294 295 295 297 298 298 300
273 273 274 276 279 281 283 285 282 281 280 280 279 277 277 274 276 276 278 278 275 274 278 281 282 285 287 287 288 289 290 291 293 294 296 295 294 295 297 297 297 299 300
270 270 272 275 277 279 280 282 279 279 278 278 278 274 275 275 275 277 277 277 274 275 276 279 283 285 285 286 287 288 289 290 292 294 295 295 296 296 298 298 298 299 300
269 270 271 273 275 275 277 277 278 278 277 276 277 275 273 273 274 275 276 275 276 275 277 280 282 284 285 287 286 285 288 290 292 294 296 297 298 298 298 298 299 299 299
268 269 270 271 273 274 274 274 274 275 276 276 275 274 273 272 273 275 277 276 275 274 277 279 281 282 284 286 286 286 287 290 292 295 297 297 298 299 299 300 301 301 300
267 268 268 269 271 272 273 272 272 272 272 273 273 272 271 271 271 273 275 276 275 275 277 279 281 281 282 284 285 286 288 290 292 295 297 298 299 299 300 302 302 301 301
266 266 266 268 270 272 272 271 271 272 271 270 269 270 270 270 271 272 274 274 274 276 276 276 277 279 281 284 285 285 287 290 293 294 296 297 298 299 299 300 301 301 301
264 263 264 265 268 269 270 271 271 271 271 269 269 270 270 270 271 271 271 272 273 274 274 276 277 279 281 283 283 285 286 288 291 294 296 298 298 298 298 298 300 300 301
261 261 262 263 265 267 266 267 270 271 271 270 269 269 269 269 270 271 271 271 274 275 274 274 277 280 282 283 284 284 286 288 290 292 294 296 297 298 298 299 300 301 300
261 260 261 262 263 264 264 265 267 269 270 270 268 268 269 270 271 271 271 271 273 275 276 275 277 280 282 283 285 286 287 288 289 290 292 294 296 297 298 299 300 300 301
Height
5851 5850 5849 5849 5848 5847 5847 5846 5846 5845 5845 5845 5845 5845 5844 5844 5844 5844 5844 5843 5843 5844 5844 5844 5845 5845 5845 5845 5845 5846 5846 5847 5847 5847 5848 5849 5849 5850 5850 5850 5851 5850 5850
5850 5849 5848 5848 5847 5846 5846 5845 5844 5844 5844 5843 5843 5843 5843 5843 5842 5842 5842 5842 5843 5843 5843 5843 5843 5843 5844 5844 5844 5845 5845 5845 5846 5846 5847 5847 5848 5848 5848 5849 5849 5848 5848
5849 5848 5847 5846 5846 5845 5845 5844 5843 5843 5842 5842 5842 5842 5842 5842 5842 5842 5842 5842 5842 5842 5842 5842 5842 5842 5843 5843 5843 5844 5844 5844 5844 5845 5846 5846 5846 5847 5847 5847 5847 5847 5847
5848 5846 5846 5845 5845 5844 5844 5843 5843 5842 5842 5841 5841 5841 5841 5841 5841 5841 5841 5841 5841 5841 5841 5841 5841 5841 5842 5842 5842 5842 5843 5843 5843 5844 5844 5845 5845 5846 5846 5846 5845 5845 5846
5847 5846 5845 5844 5844 5843 5843 5842 5842 5841 5841 5841 5841 5841 5841 5841 5841 5841 5840 5840 5840 5840 5840 5840 5840 5840 5841 5841 5841 5841 5842 5842 5842 5843 5843 5844 5844 5844 5845 5844 5844 5844 5844
5846 5845 5845 5844 5843 5842 5842 5842 5841 5841 5840 5840 5840 5840 5840 5840 5840 5840 5840 5840 5840 5840 5840 5839 5839 5840 5840 5840 5840 5840 5841 5841 5841 5842 5842 5842 5843 5843 5843 5843 5843 5842 5842
5846 5845 5844 5843 5842 5842 5841 5841 5840 5840 5840 5840 5840 5839 5839 5839 5839 5839 5839 5839 5839 5839 5839 5839 5839 5839 5839 5839 5839 5839 5840 5840 5840 5840 5841 5841 5841 5841 5841 5841 5841 5841 5840
5845 5844 5843 5843 5842 5841 5840 5839 5839 5839 5839 5839 5839 5839 5838 5838 5839 5839 5838 5838 5838 5838 5838 5838 5838 5838 5838 5838 5838 5839 5839 5839 5839 5839 5839 5839 5839 5839 5839 5839 5839 5839 5839
5844 5843 5842 5842 5841 5840 5839 5839 5838 5838 5837 5837 5837 5838 5838 5837 5838 5838 5838 5838 5838 5837 5837 5837 5837 5837 5837 5837 5837 5838 5838 5838 5838 5838 5838 5838 5838 5837 5837 5837 5837 5837 5837
5842 5842 5841 5841 5840 5839 5839 5838 5837 5837 5836 5836 5836 5837 5836 5836 5836 5837 5837 5837 5837 5836 5836 5836 5836 5836 5836 5836 5836 5836 5837 5837 5836 5836 5836 5836 5836 5836 5835 5835 5835 5834 5834
5841 5840 5840 5839 5838 5838 5837 5837 5836 5836 5836 5835 5835 5835 5835 5835 5835 5835 5835 5835 5835 5835 5835 5835 5835 5835 5835 5835 5835 5835 5835 5835 5835 5835 5834 5834 5834 5834 5833 5833 5832 5832 5832
5839 5838 5838 5837 5837 5836 5836 5836 5835 5835 5834 5834 5834 5834 5834 5834 5834 5834 5834 5834 5834 5834 5834 5834 5834 5834 5834 5834 5834 5833 5833 5833 5833 5833 5833 5832 5832 5831 5831 5830 5830 5829 5829
5837 5837 5836 5836 5835 5835 5835 5834 5834 5833 5833 5833 5833 5832 5832 5832 5832 5832 5832 5832 5832 5832 5832 5832 5832 5832 5832 5832 5832 5832 5832 5831 5831 5831 5831 5830 5830 5829 5828 5828 5827 5826 5826
5835 5835 5834 5834 5833 5833 5833 5832 5832 5831 5831 5831 5831 5831 5831 5830 5830 5830 5830 5830 5830 5830 5830 5830 5830 5830 5831 5830 5830 5830 5830 5829 5829 5829 5828 5828 5827 5826 5826 5825 5824 5823 5823
5832 5832 5832 5832 5831 5831 5830 5830 5830 5829 5829 5829 5829 5828 5828 5828 5828 5828 5829 5828 5828 5828 5828 5829 5829 5829 5829 5828 5828 5828 5828 5827 5827 5826 5826 5825 5824 5823 5822 5822 5821 5820 5819
5829 5829 5829 5829 5829 5828 5828 5827 5827 5827 5827 5827 5826 5826 5826 5826 5826 5826 5826 5826 5826 5826 5826 5826 5826 5827 5826 5826 5826 5826 5825 5825 5824 5823 5823 5822 5821 5820 5819 5818 5817 5816 5815
5825 5825 5825 5825 5825 5825 5825 5824 5824 5824 5824 5824 5824 5824 5824 5824 5824 5824 5824 5824 5824 5824 5824 5824 5824 5824 5824 5823 5823 5823 5822 5822 5821 5820 5819 5818 5817 5816 5815 5814 5813 5812 5811
5821 5821 5822 5822 5822 5821 5821 5821 5821 5821 5821 5821 5821 5821 5821 5821 5821 5821 5821 5821 5821 5821 5821 5821 5821 5821 5821 5820 5820 5819 5819 5818 5817 5817 5816 5815 5813 5812 5811 5810 5809 5807 5806
5817 5817 5817 5817 5817 5817 5817 5817 5817 5817 5817 5818 5818 5818 5818 5818 5818 5818 5818 5818 5818 5818 5818 5818 5818 5817 5817 5817 5816 5816 5815 5815 5814 5813 5812 5810 5809 5808 5807 5805 5804 5802 5800
5812 5812 5812 5813 5813 5813 5813 5813 5813 5813 5813 5814 5813 5814 5814 5814 5814 5814 5814 5814 5814 5814 5814 5814 5814 5813 5813 5813 5812 5812 5811 5810 5810 5809 5807 5806 5804 5803 5801 5800 5798 5796 5794
5806 5807 5807 5808 5808 5808 5808 5808 5809 5809 5809 5809 5809 5809 5810 5810 5810 5810 5810 5810 5810 5810 5810 5810 5810 5809 5809 5808 5808 5807 5806 5805 5804 5804 5802 5801 5799 5797 5795 5793 5791 5789 5787
5800 5801 5802 5802 5802 5803 5803 5803 5804 5804 5804 5804 5804 5804 5805 5805 5805 5805 5805 5805 5805 5805 5805 5805 5805 5805 5804 5804 5803 5802 5801 5800 5799 5798 5797 5795 5793 5791 5789 5787 5784 5782 5780
5794 5794 5795 5796 5797 5797 5797 5798 5798 5798 5798 5799 5799 5799 5799 5800 5800 5800 5800 5800 5800 5800 5800 5800 5800 5799 5799 5798 5797 5797 5796 5795 5793 5792 5790 5788 5786 5784 5782 5780 5777 5774 5772
5787 5788 5788 5789 5790 5790 5791 5791 5791 5792 5792 5792 5793 5793 5793 5794 5794 5794 5795 5795 5795 5794 5794 5794 5794 5793 5793 5792 5791 5790 5789 5788 5787 5785 5783 5782 5779 5777 5775 5772 5769 5767 5764
5779 5780 5781 5782 5783 5783 5784 5784 5785 5785 5785 5786 5786 5787 5787 5787 5788 5788 5788 5788 5788 5788 5788 5787 5787 5787 5786 5785 5784 5783 5782 5781 5780 5778 5776 5774 5772 5770 5767 5764 5761 5759 5755
5770 5771 5772 5773 5774 5775 5776 5777 5777 5777 5778 5778 5779 5779 5780 5780 5781 5781 5781 5781 5781 5781 5780 5780 5780 5779 5779 5778 5777 5776 5775 5773 5772 5770 5768 5766 5764 5761 5759 5756 5753 5750 5747